Location: Central Falls
(41.8900°N, 71.3929°W)
Time: 11:06:07
(UTC+00:00)

A-11 Canister half - Pass Details

Date: 07 December 2023
Orbit: 1526 x 1682 km, 47.3° (Epoch: 20 February)

Event Time Altitude Azimuth Distance (km) Brightness Sun altitude
Rises 21:12:46 0° 198° (SSW) 4,885 12.5 -0.6°
Reaches altitude 10° 21:16:21 10° 189° (S) 3,914 11.8 -1.2°
Maximum altitude 21:24:49 32° 131° (SE) 2,597 10.1 -2.5°
Drops below altitude 10° 21:33:18 10° 73° (ENE) 3,940 10.5 -3.9°
Enters shadow 21:35:15 - 68° (ENE) 4,459 10.7 -4.2°
Sets 21:36:53 0° 65° (ENE) 4,921 - -4.5°
